CAPE
1393 1357 1391 1402 1317 1261 1221 1197 1150 1061 978 1038 1036 846 738 735 686 608 562 527 479 425 378 386 392 382 352 346 343 356 344 365 335 289 313 357 317 300 301 330 376 414 346 306 232 187 0 0 0 0 0 0 0 0 0 0 0 0 0 0 0 0 0
1411 1417 1406 1375 1314 1259 1230 1190 1139 1050 1034 1012 1010 747 659 649 610 559 496 472 438 411 388 384 377 354 345 337 355 319 269 302 364 418 388 311 216 281 174 284 439 528 500 406 335 224 0 0 0 0 0 0 0 0 0 0 0 0 0 0 0 0 0
1432 1405 1376 1366 1355 1320 1254 1178 1111 1077 1123 1000 817 699 598 584 553 519 480 429 397 390 391 408 430 448 430 370 278 190 136 207 275 325 305 210 146 251 256 235 300 434 473 428 322 215 50 0 0 0 0 0 0 0 0 0 0 0 0 0 0 0 0
1464 1422 1367 1358 1348 1316 1232 1157 1061 1079 1036 976 837 700 625 573 556 523 482 440 413 435 455 433 320 243 163 119 96 77 0 89 131 145 140 115 98 64 25 94 91 145 138 13 0 0 0 0 0 0 0 0 0 0 0 0 0 0 0 0 0 0 0
1458 1441 1361 1290 1313 1290 1204 1105 968 920 853 838 784 720 649 594 582 551 498 468 429 390 377 297 177 95 106 69 0 0 0 51 90 101 93 86 0 0 0 0 0 0 0 0 0 0 0 0 0 0 0 0 0 0 0 0 0 0 0 0 0 0 0
1477 1432 1366 1198 1230 1224 1150 1062 902 836 749 745 738 703 643 587 567 530 491 449 406 381 321 193 83 65 91 72 0 0 0 0 0 0 0 0 0 0 0 0 0 0 0 0 0 0 0 0 0 0 0 0 0 0 0 0 0 0 0 0 0 0 0
1480 1418 1355 1240 1119 1120 1084 1041 920 830 759 649 619 647 627 573 538 500 470 446 383 266 157 96 72 69 74 0 0 0 0 0 0 0 0 0 0 0 0 0 0 0 0 0 0 0 0 0 0 0 0 0 0 0 0 0 0 0 0 0 0 0 0
1453 1421 1346 1221 1125 1030 1006 958 874 798 689 432 356 452 411 456 514 475 426 398 332 204 115 39 28 46 11 0 0 0 0 0 0 0 0 0 0 0 0 0 0 0 0 0 0 0 0 0 0 0 0 0 0 0 0 0 0 0 0 0 0 0 0
1476 1415 1288 1160 1096 994 948 865 810 726 640 445 395 391 284 286 411 430 404 402 266 150 128 76 0 0 0 0 0 0 0 0 0 0 0 0 0 0 0 0 0 0 0 0 0 0 0 0 0 0 0 0 0 0 0 0 0 0 0 0 0 0 0
1514 1416 1311 1218 1103 978 897 727 729 642 642 443 460 412 335 234 304 337 368 277 149 149 100 0 0 0 0 0 0 0 0 0 0 0 0 0 0 0 0 0 0 0 0 0 0 0 0 0 0 0 0 0 0 0 0 0 0 0 0 0 0 0 0
1501 1429 1331 1263 1119 992 848 756 797 658 508 474 462 453 366 304 280 307 245 132 162 27 2 0 0 0 0 0 0 0 0 0 0 0 0 0 0 0 0 0 0 0 0 0 0 0 0 0 0 0 0 0 0 0 0 0 0 0 0 0 0 0 0
1481 1409 1348 1238 1122 1019 894 842 854 657 501 480 490 394 274 277 321 264 180 199 130 7 5 0 0 0 0 0 0 0 0 0 0 0 0 0 0 0 0 0 0 0 0 0 0 0 0 0 0 0 0 0 0 0 0 0 0 0 0 0 0 0 0
1413 1360 1298 1210 1142 1069 890 915 820 681 542 466 384 280 277 307 292 277 300 265 72 3 3 0 0 0 0 0 0 0 0 0 0 0 0 0 0 0 0 0 0 0 0 0 0 0 0 0 0 0 0 0 0 0 0 0 0 0 0 0 0 0 0
1376 1315 1248 1194 1146 1044 895 967 905 763 600 509 364 280 290 296 310 315 312 122 2 5 0 0 0 0 0 0 0 0 0 0 0 0 0 0 0 0 0 0 0 0 0 0 0 0 0 0 0 0 0 0 0 0 0 0 0 0 0 0 0 0 0
1344 1330 1275 1255 1171 998 962 947 932 815 670 605 392 40 258 271 301 310 248 79 1 3 2 0 0 0 0 0 0 0 0 0 0 0 0 0 0 0 0 0 0 0 0 0 0 0 0 0 0 0 0 0 0 0 0 0 0 0 0 0 0 0 0
1399 1381 1341 1206 1069 997 966 948 927 822 677 594 423 282 253 270 280 279 205 103 1 3 2 0 0 0 0 0 0 0 0 0 0 0 0 0 0 0 0 0 0 0 0 0 0 0 0 0 0 0 0 0 0 0 0 0 0 0 0 0 0 0 0
1434 1378 1256 1146 1088 1068 983 942 827 745 728 484 372 0 235 285 236 209 96 0 0 0 0 0 0 0 0 0 0 0 0 0 0 0 0 0 0 0 0 0 0 0 0 0 0 0 0 0 0 0 0 0 0 0 0 0 0 0 0 0 0 0 0
1433 1351 1264 1239 1173 1164 1050 973 857 778 710 440 314 8 242 194 145 110 10 0 0 0 0 0 0 0 0 0 0 0 0 0 0 0 0 0 0 0 7 4 0 0 0 0 0 0 0 0 0 0 0 0 0 0 0 0 0 0 0 0 0 0 0
1434 1362 1324 1275 1171 1070 996 964 822 797 719 401 294 258 224 20 106 15 0 0 0 0 0 0 0 0 0 0 0 0 0 0 0 0 0 0 0 0 0 0 0 0 0 0 0 0 0 0 0 0 0 0 0 0 0 0 0 0 0 0 0 0 0
1388 1371 1323 1263 1163 1072 1013 930 784 745 560 410 336 223 168 115 0 0 0 0 0 0 0 0 0 0 0 0 0 0 0 0 0 0 0 0 0 0 0 0 2 2 0 0 0 0 0 0 0 0 0 0 0 0 0 0 0 0 0 0 0 0 0
1454 1404 1348 1273 1098 983 947 887 791 534 482 426 310 189 113 6 0 0 0 0 0 0 0 0 0 0 0 0 0 0 0 0 0 0 0 0 0 0 0 0 2 0 0 0 0 0 0 0 0 0 0 0 0 0 0 0 0 0 0 0 0 0 0
1588 1489 1308 1129 1031 847 910 856 804 581 394 368 284 165 126 123 103 0 0 0 0 0 0 0 0 0 0 0 0 0 0 0 0 16 17 2 0 0 0 0 0 0 0 0 0 0 0 0 0 0 0 0 0 0 0 0 0 0 0 0 0 0 0
1734 1548 1320 1022 931 898 831 812 755 598 338 262 196 148 136 130 102 0 0 0 0 0 0 0 0 0 0 0 0 0 0 0 4 10 4 0 0 0 0 12 2 0 0 0 0 0 0 0 0 0 0 0 0 0 0 0 0 0 0 0 0 0 0
1736 1524 1379 1172 1126 1018 886 789 737 550 261 202 188 161 116 116 0 0 0 0 0 0 0 0 0 0 0 0 0 0 0 1 5 10 5 0 0 0 0 18 4 0 0 0 0 0 0 0 0 0 0 0 0 0 0 0 0 0 0 0 0 0 0
1645 1355 1338 1266 1125 1097 983 831 665 468 275 229 212 156 114 105 19 0 0 0 0 0 0 0 0 0 0 0 0 0 0 26 108 0 0 0 0 2 14 18 4 0 0 0 0 0 0 0 0 0 0 0 0 0 0 0 0 0 0 0 0 0 0
1692 1531 1443 1286 1214 1163 950 867 692 358 241 238 200 128 101 67 0 0 0 0 0 0 0 0 0 0 0 0 0 0 0 0 0 0 0 0 14 22 26 22 0 0 0 0 0 0 0 0 0 0 0 0 0 0 0 0 0 0 0 0 0 0 0
1591 1492 1489 1471 1334 1177 824 859 680 366 216 195 153 105 77 23 0 0 0 0 0 0 0 0 0 0 0 0 0 0 0 0 2 10 24 36 41 48 50 34 5 0 0 0 0 0 0 0 0 0 0 0 0 0 0 0 0 0 0 0 0 0 0
1575 1564 1462 1286 1123 1020 848 794 634 350 179 158 117 80 38 11 2 0 0 0 0 0 0 0 0 0 0 0 0 0 1 18 32 49 72 73 66 66 59 31 5 0 0 0 0 0 0 0 0 0 0 0 0 0 0 0 0 0 0 0 0 0 0
1535 1529 1220 1214 982 786 818 785 633 367 137 105 94 38 3 2 2 13 3 0 3 0 4 0 0 0 0 0 0 30 49 60 81 78 78 95 78 94 65 17 0 0 0 0 0 0 0 0 0 0 0 0 0 0 0 0 0 0 0 0 0 0 0
1594 1536 1265 1142 872 765 789 718 570 405 137 100 65 10 1 2 2 3 6 2 2 2 1 0 0 0 26 61 43 33 44 28 34 68 66 50 68 4 0 0 0 0 0 2 2 0 0 0 0 0 0 0 0 0 0 0 0 0 0 0 0 0 0
1666 1358 1239 1261 920 755 706 663 585 407 167 90 52 13 5 7 7 8 7 5 7 8 2 96 87 36 29 22 24 16 132 146 156 145 111 66 58 23 9 0 0 1 8 4 3 0 0 0 0 0 0 0 0 0 0 0 0 0 0 0 0 0 0
1685 1496 1229 1263 831 752 710 715 584 368 143 78 54 30 18 10 12 11 7 6 6 3 179 150 25 21 14 20 28 29 92 90 81 7 9 0 0 11 18 27 6 2 12 10 5 0 0 0 0 0 0 0 0 0 0 0 0 0 0 0 0 0 0
1449 1402 1131 940 850 761 742 685 522 288 128 70 51 41 21 2 6 1 4 13 18 157 180 28 16 16 20 31 29 164 98 4 20 7 22 31 25 31 22 9 5 12 21 15 2 0 0 0 0 0 0 0 0 0 0 0 0 0 0 0 0 0 0
1060 920 716 668 729 807 723 600 407 219 127 87 74 53 51 33 14 12 25 36 156 237 106 14 46 173 78 42 62 83 86 32 27 42 92 46 32 33 25 18 13 13 12 10 0 0 0 0 0 0 0 0 0 0 0 0 0 0 0 0 0 0 0
928 685 674 596 410 581 643 468 308 180 148 143 121 122 186 209 230 48 38 37 229 33 41 49 48 36 56 79 76 46 151 138 0 7 56 54 22 30 36 10 6 8 5 0 0 0 0 0 0 0 0 0 0 0 0 0 0 0 0 0 0 0 0
873 802 636 612 509 491 649 587 412 312 284 269 234 242 243 242 253 154 143 238 97 107 150 21 31 20 6 3 134 165 187 192 40 4 39 28 30 12 0 5 6 3 0 0 0 0 0 0 0 0 0 0 0 0 0 0 0 0 0 0 0 0 0
887 694 719 678 603 677 762 746 572 402 352 273 293 267 234 241 264 112 231 235 256 225 216 202 158 191 187 167 157 164 160 128 43 40 23 0 0 0 3 4 2 0 0 0 0 0 0 0 0 0 0 0 0 0 0 0 0 0 0 0 0 0 0
Wind_Speed
26 26 25 25 25 24 22 21 21 21 20 20 20 19 19 19 19 19 19 20 21 20 21 22 23 23 24 21 20 19 16 16 17 19 18 17 16 14 16 17 18 18 19 19 22 24 nan nan nan nan nan nan nan nan nan nan nan nan nan nan nan nan nan
28 28 27 27 26 23 22 21 22 21 21 20 19 19 19 20 20 21 21 21 22 21 21 23 22 23 24 24 24 22 17 15 15 17 20 15 14 15 18 17 19 19 19 21 22 22 nan nan nan nan nan nan nan nan nan nan nan nan nan nan nan nan nan
29 29 28 27 24 22 22 22 22 22 20 19 19 19 20 20 21 22 22 22 22 22 22 24 23 24 22 23 22 19 17 19 18 18 17 17 16 16 16 17 18 19 21 20 20 23 nan nan nan nan nan nan nan nan nan nan nan nan nan nan nan nan nan
30 30 28 26 24 22 22 21 21 20 19 19 20 20 20 21 22 22 23 23 22 22 23 24 24 23 21 21 nan nan nan nan 20 20 20 18 nan nan nan nan nan 20 21 nan nan nan nan nan nan nan nan nan nan nan nan nan nan nan nan nan nan nan nan
30 28 27 25 23 22 22 21 20 20 19 20 21 21 21 22 24 24 23 23 23 24 24 23 23 nan 20 nan nan nan nan nan nan 21 nan nan nan nan nan nan nan nan nan nan nan nan nan nan nan nan nan nan nan nan nan nan nan nan nan nan nan nan nan
29 27 25 24 21 21 21 21 20 20 20 21 20 22 21 23 24 25 24 24 23 23 24 23 nan nan nan nan nan nan nan nan nan nan nan nan nan nan nan nan nan nan nan nan nan nan nan nan nan nan nan nan nan nan nan nan nan nan nan nan nan nan nan
27 25 23 23 21 20 20 21 21 20 20 21 21 21 22 23 23 24 24 23 23 23 25 nan nan nan nan nan nan nan nan nan nan nan nan nan nan nan nan nan nan nan nan nan nan nan nan nan nan nan nan nan nan nan nan nan nan nan nan nan nan nan nan
26 24 23 22 21 21 20 21 21 21 21 22 23 23 23 23 24 25 25 25 23 24 25 nan nan nan nan nan nan nan nan nan nan nan nan nan nan nan nan nan nan nan nan nan nan nan nan nan nan nan nan nan nan nan nan nan nan nan nan nan nan nan nan
24 23 22 21 20 19 20 21 22 23 23 24 24 24 23 24 25 26 25 24 22 23 23 nan nan nan nan nan nan nan nan nan nan nan nan nan nan nan nan nan nan nan nan nan nan nan nan nan nan nan nan nan nan nan nan nan nan nan nan nan nan nan nan
23 21 21 20 20 20 20 21 23 24 25 24 25 24 25 24 25 26 26 23 21 21 21 nan nan nan nan nan nan nan nan nan nan nan nan nan nan nan nan nan nan nan nan nan nan nan nan nan nan nan nan nan nan nan nan nan nan nan nan nan nan nan nan
21 20 21 20 21 22 22 23 24 25 24 24 25 25 25 25 24 23 22 19 18 nan nan nan nan nan nan nan nan nan nan nan nan nan nan nan nan nan nan nan nan nan nan nan nan nan nan nan nan nan nan nan nan nan nan nan nan nan nan nan nan nan nan
20 21 21 22 22 23 24 23 24 25 26 25 26 26 25 24 22 20 18 16 14 nan nan nan nan nan nan nan nan nan nan nan nan nan nan nan nan nan nan nan nan nan nan nan nan nan nan nan nan nan nan nan nan nan nan nan nan nan nan nan nan nan nan
21 22 22 23 22 23 24 24 26 27 26 26 25 25 24 22 20 18 16 15 nan nan nan nan nan nan nan nan nan nan nan nan nan nan nan nan nan nan nan nan nan nan nan nan nan nan nan nan nan nan nan nan nan nan nan nan nan nan nan nan nan nan nan
22 23 23 22 23 24 25 25 26 26 27 25 25 24 22 20 18 17 17 16 nan nan nan nan nan nan nan nan nan nan nan nan nan nan nan nan nan nan nan nan nan nan nan nan nan nan nan nan nan nan nan nan nan nan nan nan nan nan nan nan nan nan nan
23 23 23 22 23 24 25 25 26 27 26 24 23 nan 21 19 17 17 17 nan nan nan nan nan nan nan nan nan nan nan nan nan nan nan nan nan nan nan nan nan nan nan nan nan nan nan nan nan nan nan nan nan nan nan nan nan nan nan nan nan nan nan nan
23 23 23 23 23 24 25 26 25 26 25 24 22 21 20 18 18 18 17 16 nan nan nan nan nan nan nan nan nan nan nan nan nan nan nan nan nan nan nan nan nan nan nan nan nan nan nan nan nan nan nan nan nan nan nan nan nan nan nan nan nan nan nan
23 23 24 23 24 24 25 25 25 25 25 23 22 nan 19 18 18 17 nan nan nan nan nan nan nan nan nan nan nan nan nan nan nan nan nan nan nan nan nan nan nan nan nan nan nan nan nan nan nan nan nan nan nan nan nan nan nan nan nan nan nan nan nan
24 24 24 23 24 25 24 25 25 26 25 23 21 nan 19 17 17 16 nan nan nan nan nan nan nan nan nan nan nan nan nan nan nan nan nan nan nan nan nan nan nan nan nan nan nan nan nan nan nan nan nan nan nan nan nan nan nan nan nan nan nan nan nan
24 25 25 24 24 24 24 25 25 24 24 22 21 19 19 nan 16 nan nan nan nan nan nan nan nan nan nan nan nan nan nan nan nan nan nan nan nan nan nan nan nan nan nan nan nan nan nan nan nan nan nan nan nan nan nan nan nan nan nan nan nan nan nan
25 25 24 24 23 24 24 25 25 24 22 22 21 20 18 17 nan nan nan nan nan nan nan nan nan nan nan nan nan nan nan nan nan nan nan nan nan nan nan nan nan nan nan nan nan nan nan nan nan nan nan nan nan nan nan nan nan nan nan nan nan nan nan
25 25 24 24 24 24 24 24 24 24 23 22 20 20 19 nan nan nan nan nan nan nan nan nan nan nan nan nan nan nan nan nan nan nan nan nan nan nan nan nan nan nan nan nan nan nan nan nan nan nan nan nan nan nan nan nan nan nan nan nan nan nan nan
26 25 24 24 25 26 24 24 25 24 23 21 19 19 18 18 18 nan nan nan nan nan nan nan nan nan nan nan nan nan nan nan nan nan nan nan nan nan nan nan nan nan nan nan nan nan nan nan nan nan nan nan nan nan nan nan nan nan nan nan nan nan nan
25 26 24 23 24 26 26 25 26 25 23 21 20 20 19 18 18 nan nan nan nan nan nan nan nan nan nan nan nan nan nan nan nan nan nan nan nan nan nan nan nan nan nan nan nan nan nan nan nan nan nan nan nan nan nan nan nan nan nan nan nan nan nan
25 24 23 24 25 26 26 26 27 25 24 22 21 20 20 19 nan nan nan nan nan nan nan nan nan nan nan nan nan nan nan nan nan nan nan nan nan nan nan nan nan nan nan nan nan nan nan nan nan nan nan nan nan nan nan nan nan nan nan nan nan nan nan
25 23 24 25 25 25 27 28 28 26 24 22 21 21 20 19 nan nan nan nan nan nan nan nan nan nan nan nan nan nan nan nan 26 nan nan nan nan nan nan nan nan nan nan nan nan nan nan nan nan nan nan nan nan nan nan nan nan nan nan nan nan nan nan
26 24 23 26 26 27 28 29 28 27 24 22 22 21 20 nan nan nan nan nan nan nan nan nan nan nan nan nan nan nan nan nan nan nan nan nan nan nan nan nan nan nan nan nan nan nan nan nan nan nan nan nan nan nan nan nan nan nan nan nan nan nan nan
25 25 26 27 27 28 29 29 28 26 24 23 22 21 nan nan nan nan nan nan nan nan nan nan nan nan nan nan nan nan nan nan nan nan nan nan nan nan nan nan nan nan nan nan nan nan nan nan nan nan nan nan nan nan nan nan nan nan nan nan nan nan nan
25 25 27 29 28 28 29 29 28 26 24 23 22 nan nan nan nan nan nan nan nan nan nan nan nan nan nan nan nan nan nan nan nan nan nan nan nan nan nan nan nan nan nan nan nan nan nan nan nan nan nan nan nan nan nan nan nan nan nan nan nan nan nan
26 25 28 29 30 30 29 29 28 26 25 23 nan nan nan nan nan nan nan nan nan nan nan nan nan nan nan nan nan nan nan nan nan nan nan nan nan nan nan nan nan nan nan nan nan nan nan nan nan nan nan nan nan nan nan nan nan nan nan nan nan nan nan
27 27 28 30 31 31 30 29 28 27 25 23 nan nan nan nan nan nan nan nan nan nan nan nan nan nan nan nan nan nan nan nan nan nan nan nan nan nan nan nan nan nan nan nan nan nan nan nan nan nan nan nan nan nan nan nan nan nan nan nan nan nan nan
28 27 29 30 32 30 29 29 27 26 24 nan nan nan nan nan nan nan nan nan nan nan nan nan nan nan nan nan nan nan 32 34 35 36 36 nan nan nan nan nan nan nan nan nan nan nan nan nan nan nan nan nan nan nan nan nan nan nan nan nan nan nan nan
28 28 29 31 32 30 28 28 27 26 24 nan nan nan nan nan nan nan nan nan nan nan 29 30 nan nan nan nan nan nan nan nan nan nan nan nan nan nan nan nan nan nan nan nan nan nan nan nan nan nan nan nan nan nan nan nan nan nan nan nan nan nan nan
28 30 31 31 30 28 28 28 27 26 25 nan nan nan nan nan nan nan nan nan nan 30 31 nan nan nan nan nan nan 35 nan nan nan nan nan nan nan nan nan nan nan nan nan nan nan nan nan nan nan nan nan nan nan nan nan nan nan nan nan nan nan nan nan
33 32 32 32 29 27 26 27 27 26 26 nan nan nan nan nan nan nan nan nan 31 31 31 nan nan 36 nan nan nan nan nan nan nan nan nan nan nan nan nan nan nan nan nan nan nan nan nan nan nan nan nan nan nan nan nan nan nan nan nan nan nan nan nan
29 30 30 31 30 27 26 27 26 25 25 24 25 25 25 26 28 nan nan nan 33 nan nan nan nan nan nan nan nan nan 36 35 nan nan nan nan nan nan nan nan nan nan nan nan nan nan nan nan nan nan nan nan nan nan nan nan nan nan nan nan nan nan nan
31 29 29 29 30 27 25 26 25 25 25 25 26 27 27 28 30 32 32 32 nan 33 32 nan nan nan nan nan 35 35 37 39 nan nan nan nan nan nan nan nan nan nan nan nan nan nan nan nan nan nan nan nan nan nan nan nan nan nan nan nan nan nan nan
29 29 28 27 26 25 24 25 25 25 26 27 27 28 28 30 32 33 33 32 32 31 30 31 32 35 36 38 38 37 38 41 nan nan nan nan nan nan nan nan nan nan nan nan nan nan nan nan nan nan nan nan nan nan nan nan nan nan nan nan nan nan nan
Wind_Direction
288 286 282 278 274 279 282 280 278 278 279 282 285 284 285 287 288 289 292 294 297 299 300 300 301 300 297 295 294 288 288 284 283 290 288 284 293 270 249 250 251 263 270 267 290 299 nan nan nan nan nan nan nan nan nan nan nan nan nan nan nan nan nan
280 281 277 275 277 279 279 275 277 277 276 275 277 281 282 284 285 288 291 293 296 297 297 297 297 300 300 297 291 288 284 270 267 274 282 289 282 276 259 248 256 261 262 268 275 277 nan nan nan nan nan nan nan nan nan nan nan nan nan nan nan nan nan
275 274 276 278 277 279 278 276 277 278 277 272 271 276 279 280 282 285 289 294 297 297 296 298 297 297 293 286 288 286 277 272 261 269 279 277 268 259 256 271 267 265 264 269 274 282 nan nan nan nan nan nan nan nan nan nan nan nan nan nan nan nan nan
281 280 279 278 276 276 278 278 280 278 273 272 272 273 276 279 281 284 289 293 296 295 293 294 296 298 291 283 nan nan nan nan 271 265 262 256 nan nan nan nan nan 289 289 nan nan nan nan nan nan nan nan nan nan nan nan nan nan nan nan nan nan nan nan
284 282 284 284 283 282 279 280 276 273 270 268 270 274 276 279 282 284 290 293 294 292 291 292 292 nan 285 nan nan nan nan nan nan 261 nan nan nan nan nan nan nan nan nan nan nan nan nan nan nan nan nan nan nan nan nan nan nan nan nan nan nan nan nan
283 284 285 284 281 280 279 280 281 279 274 272 275 278 279 284 286 289 293 295 293 290 290 289 nan nan nan nan nan nan nan nan nan nan nan nan nan nan nan nan nan nan nan nan nan nan nan nan nan nan nan nan nan nan nan nan nan nan nan nan nan nan nan
283 283 282 282 279 276 278 282 284 282 280 279 279 281 284 285 285 290 292 292 292 290 289 nan nan nan nan nan nan nan nan nan nan nan nan nan nan nan nan nan nan nan nan nan nan nan nan nan nan nan nan nan nan nan nan nan nan nan nan nan nan nan nan
281 281 279 277 277 277 277 280 277 275 277 277 279 278 282 284 286 288 291 293 293 292 292 nan nan nan nan nan nan nan nan nan nan nan nan nan nan nan nan nan nan nan nan nan nan nan nan nan nan nan nan nan nan nan nan nan nan nan nan nan nan nan nan
279 278 274 272 272 275 280 280 276 274 272 274 274 280 282 285 288 290 290 292 290 290 291 nan nan nan nan nan nan nan nan nan nan nan nan nan nan nan nan nan nan nan nan nan nan nan nan nan nan nan nan nan nan nan nan nan nan nan nan nan nan nan nan
284 281 276 277 279 277 276 274 274 272 271 274 278 280 284 283 287 290 291 290 285 286 288 nan nan nan nan nan nan nan nan nan nan nan nan nan nan nan nan nan nan nan nan nan nan nan nan nan nan nan nan nan nan nan nan nan nan nan nan nan nan nan nan
279 276 274 278 277 277 274 271 271 273 278 280 281 282 283 286 287 289 289 286 283 nan nan nan nan nan nan nan nan nan nan nan nan nan nan nan nan nan nan nan nan nan nan nan nan nan nan nan nan nan nan nan nan nan nan nan nan nan nan nan nan nan nan
274 271 269 272 276 280 280 278 280 280 279 281 282 284 285 287 289 287 284 281 283 nan nan nan nan nan nan nan nan nan nan nan nan nan nan nan nan nan nan nan nan nan nan nan nan nan nan nan nan nan nan nan nan nan nan nan nan nan nan nan nan nan nan
270 267 268 274 277 281 283 283 281 283 287 284 284 286 288 291 290 286 277 278 nan nan nan nan nan nan nan nan nan nan nan nan nan nan nan nan nan nan nan nan nan nan nan nan nan nan nan nan nan nan nan nan nan nan nan nan nan nan nan nan nan nan nan
267 263 267 274 278 281 282 283 284 285 283 285 285 288 290 290 287 281 278 278 nan nan nan nan nan nan nan nan nan nan nan nan nan nan nan nan nan nan nan nan nan nan nan nan nan nan nan nan nan nan nan nan nan nan nan nan nan nan nan nan nan nan nan
263 262 270 274 277 281 281 281 283 283 287 284 287 nan 290 286 281 279 278 nan nan nan nan nan nan nan nan nan nan nan nan nan nan nan nan nan nan nan nan nan nan nan nan nan nan nan nan nan nan nan nan nan nan nan nan nan nan nan nan nan nan nan nan
263 267 273 273 277 281 280 279 282 285 282 283 284 287 287 284 281 278 277 280 nan nan nan nan nan nan nan nan nan nan nan nan nan nan nan nan nan nan nan nan nan nan nan nan nan nan nan nan nan nan nan nan nan nan nan nan nan nan nan nan nan nan nan
267 269 273 273 280 279 276 278 281 281 280 281 285 nan 281 281 279 279 nan nan nan nan nan nan nan nan nan nan nan nan nan nan nan nan nan nan nan nan nan nan nan nan nan nan nan nan nan nan nan nan nan nan nan nan nan nan nan nan nan nan nan nan nan
266 270 273 272 279 276 277 277 277 278 279 283 282 nan 278 276 278 279 nan nan nan nan nan nan nan nan nan nan nan nan nan nan nan nan nan nan nan nan nan nan nan nan nan nan nan nan nan nan nan nan nan nan nan nan nan nan nan nan nan nan nan nan nan
267 271 273 275 280 279 278 278 278 276 282 284 283 282 282 nan 279 nan nan nan nan nan nan nan nan nan nan nan nan nan nan nan nan nan nan nan nan nan nan nan nan nan nan nan nan nan nan nan nan nan nan nan nan nan nan nan nan nan nan nan nan nan nan
264 269 273 276 275 274 276 277 278 281 280 282 286 286 281 277 nan nan nan nan nan nan nan nan nan nan nan nan nan nan nan nan nan nan nan nan nan nan nan nan nan nan nan nan nan nan nan nan nan nan nan nan nan nan nan nan nan nan nan nan nan nan nan
264 269 271 274 274 271 272 275 277 276 276 280 286 289 287 nan nan nan nan nan nan nan nan nan nan nan nan nan nan nan nan nan nan nan nan nan nan nan nan nan nan nan nan nan nan nan nan nan nan nan nan nan nan nan nan nan nan nan nan nan nan nan nan
263 268 268 267 269 271 273 276 276 275 276 278 280 286 280 275 273 nan nan nan nan nan nan nan nan nan nan nan nan nan nan nan nan nan nan nan nan nan nan nan nan nan nan nan nan nan nan nan nan nan nan nan nan nan nan nan nan nan nan nan nan nan nan
263 267 268 269 269 270 271 273 275 275 276 278 281 282 279 272 271 nan nan nan nan nan nan nan nan nan nan nan nan nan nan nan nan nan nan nan nan nan nan nan nan nan nan nan nan nan nan nan nan nan nan nan nan nan nan nan nan nan nan nan nan nan nan
265 270 269 267 266 270 274 273 273 274 274 276 280 282 280 274 nan nan nan nan nan nan nan nan nan nan nan nan nan nan nan nan nan nan nan nan nan nan nan nan nan nan nan nan nan nan nan nan nan nan nan nan nan nan nan nan nan nan nan nan nan nan nan
262 261 265 267 269 273 274 274 274 274 274 275 275 277 280 277 nan nan nan nan nan nan nan nan nan nan nan nan nan nan nan nan 291 nan nan nan nan nan nan nan nan nan nan nan nan nan nan nan nan nan nan nan nan nan nan nan nan nan nan nan nan nan nan
268 265 263 266 269 272 275 274 274 273 276 275 273 279 281 nan nan nan nan nan nan nan nan nan nan nan nan nan nan nan nan nan nan nan nan nan nan nan nan nan nan nan nan nan nan nan nan nan nan nan nan nan nan nan nan nan nan nan nan nan nan nan nan
267 269 267 266 270 274 276 275 273 271 271 272 276 277 nan nan nan nan nan nan nan nan nan nan nan nan nan nan nan nan nan nan nan nan nan nan nan nan nan nan nan nan nan nan nan nan nan nan nan nan nan nan nan nan nan nan nan nan nan nan nan nan nan
266 265 268 272 273 274 275 272 271 269 269 274 276 nan nan nan nan nan nan nan nan nan nan nan nan nan nan nan nan nan nan nan nan nan nan nan nan nan nan nan nan nan nan nan nan nan nan nan nan nan nan nan nan nan nan nan nan nan nan nan nan nan nan
265 263 268 272 276 275 273 272 270 265 265 266 nan nan nan nan nan nan nan nan nan nan nan nan nan nan nan nan nan nan nan nan nan nan nan nan nan nan nan nan nan nan nan nan nan nan nan nan nan nan nan nan nan nan nan nan nan nan nan nan nan nan nan
268 269 270 274 274 273 271 267 263 261 265 267 nan nan nan nan nan nan nan nan nan nan nan nan nan nan nan nan nan nan nan nan nan nan nan nan nan nan nan nan nan nan nan nan nan nan nan nan nan nan nan nan nan nan nan nan nan nan nan nan nan nan nan
269 270 273 276 275 270 266 262 262 261 267 nan nan nan nan nan nan nan nan nan nan nan nan nan nan nan nan nan nan nan 292 292 293 296 296 nan nan nan nan nan nan nan nan nan nan nan nan nan nan nan nan nan nan nan nan nan nan nan nan nan nan nan nan
271 272 272 270 270 269 266 263 259 260 262 nan nan nan nan nan nan nan nan nan nan nan 283 287 nan nan nan nan nan nan nan nan nan nan nan nan nan nan nan nan nan nan nan nan nan nan nan nan nan nan nan nan nan nan nan nan nan nan nan nan nan nan nan
270 272 272 268 264 264 261 259 261 263 262 nan nan nan nan nan nan nan nan nan nan 286 286 nan nan nan nan nan nan 295 nan nan nan nan nan nan nan nan nan nan nan nan nan nan nan nan nan nan nan nan nan nan nan nan nan nan nan nan nan nan nan nan nan
257 254 259 264 264 262 263 263 263 265 268 nan nan nan nan nan nan nan nan nan 282 280 283 nan nan 299 nan nan nan nan nan nan nan nan nan nan nan nan nan nan nan nan nan nan nan nan nan nan nan nan nan nan nan nan nan nan nan nan nan nan nan nan nan
266 262 259 260 262 262 262 265 267 270 269 272 276 276 274 273 275 nan nan nan 280 nan nan nan nan nan nan nan nan nan 296 295 nan nan nan nan nan nan nan nan nan nan nan nan nan nan nan nan nan nan nan nan nan nan nan nan nan nan nan nan nan nan nan
265 258 260 261 261 261 264 268 269 271 274 273 275 275 276 275 275 276 276 276 nan 282 284 nan nan nan nan nan 308 306 303 297 nan nan nan nan nan nan nan nan nan nan nan nan nan nan nan nan nan nan nan nan nan nan nan nan nan nan nan nan nan nan nan
265 262 267 265 261 265 270 271 271 272 274 275 275 276 274 275 275 277 279 278 278 280 282 283 287 295 297 304 304 306 304 300 nan nan nan nan nan nan nan nan nan nan nan nan nan nan nan nan nan nan nan nan nan nan nan nan nan nan nan nan nan nan nan